Time,TemperatureF,DewpointF,PressureIn,WindDirection,WindDirectionDegrees,WindSpeedMPH,WindSpeedGustMPH,Humidity,HourlyPrecipIn,Conditions,Clouds,dailyrainin,SoftwareType,DateUTC
2013-02-17 00:11:00,49.0,46.0,-100.00,North,-999,-999.0,-999.0,90,0.00,,,0.00,,2013-02-17 08:11:00,
2013-02-17 00:21:00,49.0,46.0,-100.00,North,-999,-999.0,-999.0,90,0.00,,,0.00,,2013-02-17 08:21:00,
2013-02-17 00:31:00,49.0,46.0,-100.00,North,-999,-999.0,-999.0,90,0.00,,,0.00,,2013-02-17 08:31:00,
2013-02-17 00:41:00,49.0,46.0,-100.00,North,-999,-999.0,-999.0,90,0.00,,,0.00,,2013-02-17 08:41:00,
2013-02-17 01:11:00,49.0,47.0,-100.00,North,-999,-999.0,-999.0,93,0.00,,,0.00,,2013-02-17 09:11:00,
2013-02-17 01:21:00,49.0,47.0,-100.00,North,-999,-999.0,-999.0,93,0.00,,,0.00,,2013-02-17 09:21:00,
2013-02-17 01:31:00,49.0,47.0,-100.00,North,-999,-999.0,-999.0,93,0.00,,,0.00,,2013-02-17 09:31:00,
2013-02-17 01:41:00,49.0,47.0,-100.00,North,-999,-999.0,-999.0,93,0.00,,,0.00,,2013-02-17 09:41:00,
2013-02-17 02:11:00,49.0,47.0,-100.00,North,-999,-999.0,-999.0,92,0.00,,,0.00,,2013-02-17 10:11:00,
2013-02-17 02:21:00,49.0,47.0,-100.00,North,-999,-999.0,-999.0,92,0.00,,,0.00,,2013-02-17 10:21:00,
2013-02-17 02:31:00,49.0,47.0,-100.00,North,-999,-999.0,-999.0,92,0.00,,,0.00,,2013-02-17 10:31:00,
2013-02-17 02:41:00,49.0,47.0,-100.00,North,-999,-999.0,-999.0,92,0.00,,,0.00,,2013-02-17 10:41:00,
2013-02-17 03:11:00,50.0,46.0,-100.00,North,-999,-999.0,-999.0,88,0.00,,,0.00,,2013-02-17 11:11:00,
2013-02-17 03:21:00,50.0,46.0,-100.00,North,-999,-999.0,-999.0,88,0.00,,,0.00,,2013-02-17 11:21:00,
2013-02-17 03:32:00,50.0,46.0,-100.00,North,-999,-999.0,-999.0,88,0.00,,,0.00,,2013-02-17 11:32:00,
2013-02-17 03:41:00,50.0,46.0,-100.00,North,-999,-999.0,-999.0,88,0.00,,,0.00,,2013-02-17 11:41:00,
2013-02-17 04:11:00,49.0,45.0,-100.00,North,-999,-999.0,-999.0,86,0.00,,,0.00,,2013-02-17 12:11:00,
2013-02-17 04:22:00,49.0,45.0,-100.00,North,-999,-999.0,-999.0,86,0.00,,,0.00,,2013-02-17 12:22:00,
2013-02-17 04:32:00,49.0,45.0,-100.00,North,-999,-999.0,-999.0,86,0.00,,,0.00,,2013-02-17 12:32:00,
2013-02-17 04:42:00,49.0,45.0,-100.00,North,-999,-999.0,-999.0,86,0.00,,,0.00,,2013-02-17 12:42:00,
2013-02-17 05:12:00,49.0,45.0,-100.00,North,-999,-999.0,-999.0,86,0.00,,,0.00,,2013-02-17 13:12:00,
2013-02-17 05:21:00,49.0,45.0,-100.00,North,-999,-999.0,-999.0,86,0.00,,,0.00,,2013-02-17 13:21:00,
2013-02-17 05:32:00,49.0,45.0,-100.00,North,-999,-999.0,-999.0,86,0.00,,,0.00,,2013-02-17 13:32:00,
2013-02-17 05:41:00,49.0,45.0,-100.00,North,-999,-999.0,-999.0,86,0.00,,,0.00,,2013-02-17 13:41:00,
2013-02-17 06:11:00,47.0,44.0,-100.00,North,-999,-999.0,-999.0,87,0.00,,,0.00,,2013-02-17 14:11:00,
2013-02-17 06:21:00,47.0,44.0,-100.00,North,-999,-999.0,-999.0,87,0.00,,,0.00,,2013-02-17 14:21:00,
2013-02-17 06:32:00,47.0,44.0,-100.00,North,-999,-999.0,-999.0,87,0.00,,,0.00,,2013-02-17 14:32:00,
2013-02-17 06:42:00,47.0,44.0,-100.00,North,-999,-999.0,-999.0,87,0.00,,,0.00,,2013-02-17 14:42:00,
2013-02-17 07:11:00,47.0,43.0,-100.00,North,-999,-999.0,-999.0,86,0.00,,,0.00,,2013-02-17 15:11:00,
2013-02-17 07:21:00,47.0,43.0,-100.00,North,-999,-999.0,-999.0,86,0.00,,,0.00,,2013-02-17 15:21:00,
2013-02-17 07:31:00,47.0,43.0,-100.00,North,-999,-999.0,-999.0,86,0.00,,,0.00,,2013-02-17 15:31:00,
2013-02-17 07:41:00,47.0,43.0,-100.00,North,-999,-999.0,-999.0,86,0.00,,,0.00,,2013-02-17 15:41:00,
2013-02-17 08:11:00,48.0,43.0,-100.00,North,-999,-999.0,-999.0,83,0.00,,,0.00,,2013-02-17 16:11:00,
2013-02-17 08:21:00,48.0,43.0,-100.00,North,-999,-999.0,-999.0,83,0.00,,,0.00,,2013-02-17 16:21:00,
2013-02-17 08:31:00,48.0,43.0,-100.00,North,-999,-999.0,-999.0,83,0.00,,,0.00,,2013-02-17 16:31:00,
2013-02-17 08:41:00,48.0,43.0,-100.00,North,-999,-999.0,-999.0,83,0.00,,,0.00,,2013-02-17 16:41:00,
2013-02-17 09:11:00,50.0,43.0,-100.00,North,-999,-999.0,-999.0,78,0.00,,,0.00,,2013-02-17 17:11:00,
2013-02-17 09:21:00,50.0,43.0,-100.00,North,-999,-999.0,-999.0,78,0.00,,,0.00,,2013-02-17 17:21:00,
2013-02-17 09:31:00,50.0,43.0,-100.00,North,-999,-999.0,-999.0,78,0.00,,,0.00,,2013-02-17 17:31:00,
2013-02-17 09:41:00,50.0,43.0,-100.00,North,-999,-999.0,-999.0,78,0.00,,,0.00,,2013-02-17 17:41:00,
2013-02-17 10:11:00,52.0,44.0,-100.00,North,-999,-999.0,-999.0,72,0.00,,,0.00,,2013-02-17 18:11:00,
2013-02-17 10:21:00,52.0,44.0,-100.00,North,-999,-999.0,-999.0,72,0.00,,,0.00,,2013-02-17 18:21:00,
2013-02-17 10:33:00,52.0,44.0,-100.00,North,-999,-999.0,-999.0,72,0.00,,,0.00,,2013-02-17 18:33:00,
2013-02-17 10:42:00,52.0,44.0,-100.00,North,-999,-999.0,-999.0,72,0.00,,,0.00,,2013-02-17 18:42:00,
2013-02-17 11:11:00,57.0,45.0,-100.00,North,-999,-999.0,-999.0,64,0.00,,,0.00,,2013-02-17 19:11:00,
2013-02-17 11:21:00,57.0,45.0,-100.00,North,-999,-999.0,-999.0,64,0.00,,,0.00,,2013-02-17 19:21:00,
2013-02-17 11:32:00,57.0,45.0,-100.00,North,-999,-999.0,-999.0,64,0.00,,,0.00,,2013-02-17 19:32:00,
2013-02-17 11:41:00,57.0,45.0,-100.00,North,-999,-999.0,-999.0,64,0.00,,,0.00,,2013-02-17 19:41:00,
2013-02-17 12:11:00,57.0,43.0,-100.00,North,-999,-999.0,-999.0,60,0.00,,,0.00,,2013-02-17 20:11:00,
2013-02-17 12:21:00,57.0,43.0,-100.00,North,-999,-999.0,-999.0,60,0.00,,,0.00,,2013-02-17 20:21:00,
2013-02-17 12:31:00,57.0,43.0,-100.00,North,-999,-999.0,-999.0,60,0.00,,,0.00,,2013-02-17 20:31:00,
2013-02-17 12:42:00,57.0,43.0,-100.00,North,-999,-999.0,-999.0,60,0.00,,,0.00,,2013-02-17 20:42:00,
2013-02-17 13:11:00,57.0,42.0,-100.00,North,-999,-999.0,-999.0,57,0.00,,,0.00,,2013-02-17 21:11:00,
2013-02-17 13:21:00,57.0,42.0,-100.00,North,-999,-999.0,-999.0,57,0.00,,,0.00,,2013-02-17 21:21:00,
2013-02-17 13:31:00,57.0,42.0,-100.00,North,-999,-999.0,-999.0,57,0.00,,,0.00,,2013-02-17 21:31:00,
2013-02-17 13:41:00,57.0,42.0,-100.00,North,-999,-999.0,-999.0,57,0.00,,,0.00,,2013-02-17 21:41:00,
2013-02-17 14:12:00,56.0,41.0,-100.00,North,-999,-999.0,-999.0,57,0.00,,,0.00,,2013-02-17 22:12:00,
2013-02-17 14:21:00,56.0,41.0,-100.00,North,-999,-999.0,-999.0,57,0.00,,,0.00,,2013-02-17 22:21:00,
2013-02-17 14:32:00,56.0,41.0,-100.00,North,-999,-999.0,-999.0,57,0.00,,,0.00,,2013-02-17 22:32:00,
2013-02-17 14:41:00,56.0,41.0,-100.00,North,-999,-999.0,-999.0,57,0.00,,,0.00,,2013-02-17 22:41:00,
2013-02-17 15:11:00,56.0,40.0,-100.00,North,-999,-999.0,-999.0,54,0.00,,,0.00,,2013-02-17 23:11:00,
2013-02-17 15:21:00,56.0,40.0,-100.00,North,-999,-999.0,-999.0,54,0.00,,,0.00,,2013-02-17 23:21:00,
2013-02-17 15:31:00,56.0,40.0,-100.00,North,-999,-999.0,-999.0,54,0.00,,,0.00,,2013-02-17 23:31:00,
2013-02-17 15:41:00,56.0,40.0,-100.00,North,-999,-999.0,-999.0,54,0.00,,,0.00,,2013-02-17 23:41:00,
2013-02-17 16:11:00,55.0,41.0,-100.00,North,-999,-999.0,-999.0,58,0.00,,,0.00,,2013-02-18 00:11:00,
2013-02-17 16:22:00,55.0,41.0,-100.00,North,-999,-999.0,-999.0,58,0.00,,,0.00,,2013-02-18 00:22:00,
2013-02-17 16:31:00,55.0,41.0,-100.00,North,-999,-999.0,-999.0,58,0.00,,,0.00,,2013-02-18 00:31:00,
2013-02-17 16:41:00,55.0,41.0,-100.00,North,-999,-999.0,-999.0,58,0.00,,,0.00,,2013-02-18 00:41:00,
2013-02-17 17:11:00,54.0,41.0,-100.00,North,-999,-999.0,-999.0,63,0.00,,,0.00,,2013-02-18 01:11:00,
2013-02-17 17:21:00,54.0,41.0,-100.00,North,-999,-999.0,-999.0,63,0.00,,,0.00,,2013-02-18 01:21:00,
2013-02-17 17:31:00,54.0,41.0,-100.00,North,-999,-999.0,-999.0,63,0.00,,,0.00,,2013-02-18 01:31:00,
2013-02-17 17:41:00,54.0,41.0,-100.00,North,-999,-999.0,-999.0,63,0.00,,,0.00,,2013-02-18 01:41:00,
2013-02-17 18:11:00,52.0,43.0,-100.00,North,-999,-999.0,-999.0,72,0.00,,,0.00,,2013-02-18 02:11:00,
2013-02-17 18:21:00,52.0,43.0,-100.00,North,-999,-999.0,-999.0,72,0.00,,,0.00,,2013-02-18 02:21:00,
2013-02-17 18:32:00,52.0,43.0,-100.00,North,-999,-999.0,-999.0,72,0.00,,,0.00,,2013-02-18 02:32:00,
2013-02-17 18:41:00,52.0,43.0,-100.00,North,-999,-999.0,-999.0,72,0.00,,,0.00,,2013-02-18 02:41:00,
2013-02-17 19:11:00,51.0,43.0,-100.00,North,-999,-999.0,-999.0,76,0.00,,,0.00,,2013-02-18 03:11:00,
2013-02-17 19:21:00,51.0,43.0,-100.00,North,-999,-999.0,-999.0,76,0.00,,,0.00,,2013-02-18 03:21:00,
2013-02-17 19:31:00,51.0,43.0,-100.00,North,-999,-999.0,-999.0,76,0.00,,,0.00,,2013-02-18 03:31:00,
2013-02-17 19:42:00,51.0,43.0,-100.00,North,-999,-999.0,-999.0,76,0.00,,,0.00,,2013-02-18 03:42:00,
2013-02-17 20:11:00,50.0,44.0,-100.00,North,-999,-999.0,-999.0,82,0.00,,,0.00,,2013-02-18 04:11:00,
2013-02-17 20:21:00,50.0,44.0,-100.00,North,-999,-999.0,-999.0,82,0.00,,,0.00,,2013-02-18 04:21:00,
2013-02-17 20:32:00,50.0,44.0,-100.00,North,-999,-999.0,-999.0,82,0.00,,,0.00,,2013-02-18 04:32:00,
2013-02-17 20:41:00,50.0,44.0,-100.00,North,-999,-999.0,-999.0,82,0.00,,,0.00,,2013-02-18 04:41:00,
2013-02-17 21:11:00,49.0,44.0,-100.00,North,-999,-999.0,-999.0,82,0.00,,,0.00,,2013-02-18 05:11:00,
2013-02-17 21:21:00,49.0,44.0,-100.00,North,-999,-999.0,-999.0,82,0.00,,,0.00,,2013-02-18 05:21:00,
2013-02-17 21:31:00,49.0,44.0,-100.00,North,-999,-999.0,-999.0,82,0.00,,,0.00,,2013-02-18 05:31:00,
2013-02-17 21:41:00,49.0,44.0,-100.00,North,-999,-999.0,-999.0,82,0.00,,,0.00,,2013-02-18 05:41:00,
2013-02-17 22:11:00,49.0,44.0,-100.00,North,-999,-999.0,-999.0,81,0.00,,,0.00,,2013-02-18 06:11:00,
2013-02-17 22:21:00,49.0,44.0,-100.00,North,-999,-999.0,-999.0,81,0.00,,,0.00,,2013-02-18 06:21:00,
2013-02-17 22:31:00,49.0,44.0,-100.00,North,-999,-999.0,-999.0,81,0.00,,,0.00,,2013-02-18 06:31:00,
2013-02-17 22:41:00,49.0,44.0,-100.00,North,-999,-999.0,-999.0,81,0.00,,,0.00,,2013-02-18 06:41:00,
2013-02-17 23:11:00,49.0,44.0,-100.00,North,-999,-999.0,-999.0,83,0.00,,,0.00,,2013-02-18 07:11:00,
2013-02-17 23:21:00,49.0,44.0,-100.00,North,-999,-999.0,-999.0,83,0.00,,,0.00,,2013-02-18 07:21:00,
2013-02-17 23:31:00,49.0,44.0,-100.00,North,-999,-999.0,-999.0,83,0.00,,,0.00,,2013-02-18 07:31:00,
2013-02-17 23:42:00,49.0,44.0,-100.00,North,-999,-999.0,-999.0,83,0.00,,,0.00,,2013-02-18 07:42:00,